Regional Weather Roundup
Issued by NWS Sterling, VA

Home | Current Version | Previous Version | Text Only | Print | Product List | Glossary Off
Versions: 1 2 3 4 5 6 7 8 9 10 11 12 13 14 15 16 17 18 19 20 21 22 23 24 25 26 27

000
ASUS41 KLWX 281510
RWRLWX

REGIONAL WEATHER ROUNDUP
NATIONAL WEATHER SERVICE BALTIMORE MD/WASHINGTON DC
1100 AM EDT SUN AUG 28 2016

Note: "FAIR" indicates few or no clouds below 12,000 feet
with no significant weather and/or obstructions to visibility.
 TC=TEMPERATURE CELSIUS

 * =Non NWS site. Station does not report precipitation (e.g. rain,
    snow, etc.), thunder, or fog.

DCZ001-MDZ009-015-VAZ040>042-051-053>054-281600-
WASHINGTON METRO

CITY           SKY/WX    TMP DP  RH WIND       PRES   REMARKS
WASHINGTON NAT MOSUNNY   82  69  64 E5        30.26S
DULLES         MOSUNNY   82  68  62 CALM      30.26S
ANDREWS AFB    MOSUNNY   82  68  62 E8        30.25S
FT BELVOIR     SUNNY     82  69  64 VRB5      30.25S
COLLEGE PARK*  PTSUNNY   81  70  69 CALM      30.25S
LEESBURG*      MOSUNNY   81  72  74 CALM      30.27F
GAITHERSBURG*  MOSUNNY   81  70  69 NE3       30.30S

$$

MDZ006>007-011-014-281600-
BALTIMORE METRO

CITY           SKY/WX    TMP DP  RH WIND       PRES   REMARKS
BWI AIRPORT    MOSUNNY   80  68  66 VRB5      30.26R
MD SCIENCE CTR   N/A     81  68  64 MISG      30.26S
MARTIN STATE   MOSUNNY   81  73  78 NE3       30.27S
ANNAPOLIS      MOSUNNY   80  70  71 VRB3      30.25S
FORT MEADE*    SUNNY    N/A N/A N/A E3        30.28S

$$

MDZ012-015-019>023-281600-
MARYLAND EASTERN SHORE

CITY           SKY/WX    TMP DP  RH WIND       PRES   REMARKS
OCEAN CITY     SUNNY     83  69  62 NE12      30.24R
SALISBURY      SUNNY     83  67  58 E12       30.23S
BAY BRIDGE AP* MOSUNNY   81  70  69 NE7       30.26S
CAMBRIDGE*     SUNNY     79  68  69 E8        30.24S

$$

MDZ017>025-281600-
SOUTHERN MARYLAND

CITY           SKY/WX    TMP DP  RH WIND       PRES   REMARKS
PATUXENT RIVER PTSUNNY   75  69  81 E5        30.24S
ST INIGOES     MOSUNNY   79  70  74 NE8       30.23S
LEONARDTOWN*   PTSUNNY   79  68  69 NE3       30.26S

$$

MDZ003>005-281600-
NORTH CENTRAL MARYLAND

CITY           SKY/WX    TMP DP  RH WIND       PRES   REMARKS
FREDERICK*     SUNNY     79  75  89 CALM      30.29R
HAGERSTOWN APT SUNNY     82  65  56 SE7       30.27S

$$

MDZ501>502-281600-
WESTERN MARYLAND

CITY           SKY/WX    TMP DP  RH WIND       PRES   REMARKS
OAKLAND*       MOSUNNY   75  68  78 CALM      30.36R
CUMBERLAND*    SUNNY     82  68  61 CALM      30.29S

$$

VAZ025>031-281600-
SHENANDOAH VALLEY

CITY           SKY/WX    TMP DP  RH WIND       PRES   REMARKS
WINCHESTER*    SUNNY     82  64  54 S6        30.27R
FRONT ROYAL*   FAIR      81  68  65 CALM      30.26S
LURAY*         FAIR      81  68  65 CALM      30.27S
NEW MARKET*    FAIR     N/A N/A N/A CALM      30.26F
STAUNTON*      PTSUNNY   80  64  57 CALM      30.31R
WAYNESBORO*    FAIR      79  65  62 CALM      30.31R

$$

WVZ021-048>050-054>055-281600-
EASTERN WEST VIRGINIA PANHANDLE

CITY           SKY/WX    TMP DP  RH WIND       PRES   REMARKS
MARTINSBURG    SUNNY     82  69  64 VRB3      30.26S
PETERSBURG*    SUNNY     84  70  63 CALM      30.26S

$$

VAZ036>039-050-281600-
CENTRAL FOOTHILLS

CITY           SKY/WX    TMP DP  RH WIND       PRES   REMARKS
CHARLOTTESVILL SUNNY     82  70  66 CALM      30.26F
CULPEPER*      MOSUNNY   82  72  71 CALM      30.26F
ORANGE*          N/A     81  70  69 CALM      30.28S
GORDONSVILLE*  FAIR      81  70  69 CALM      30.26S
WARRENTON*     FAIR      83  66  55 SE3       30.25F

$$

VAZ055>057-281600-
NORTH AND CENTRAL PIEDMONT

CITY           SKY/WX    TMP DP  RH WIND       PRES   REMARKS
FREDERICKSBRG* PTSUNNY   83  72  69 E6        30.24S
STAFFORD*      MOSUNNY   82  69  64 E7        30.29S

$$

NCZ024-NYZ072-PAZ021-071-VAZ022-071-281600-
OTHER REGIONAL OBSERVATIONS

CITY           SKY/WX    TMP DP  RH WIND       PRES   REMARKS
NEW YORK CITY  SUNNY     82  63  52 CALM      30.29F
PHILADELPHIA   MOSUNNY   83  66  56 VRB3      30.26F
PITTSBURGH     PTSUNNY   83  69  62 W5        30.24R
ROANOKE        MOSUNNY   82  65  56 CALM      30.30S
RICHMOND       MOSUNNY   82  70  66 N9        30.23S
RALEIGH        PTSUNNY   80  71  74 N8G17     30.22S

$$

ANZ530>537-281600-
MARINE OBSERVATIONS

STATION/POSITION TIME  TEMP    WIND        PRES
                       AIR SEA DIR/SP/G
                 (UTC) (F)     (DEG/KT/KT) (MB)
THOMAS PT LIGHT  1500   78 83   90/  2/  5 1025.9R
BALT KEY BRIDGE  1448   79     100/  5/  7 1024.6R
COVE POINT       1448   78     100/  3/  4 1024.7F
LEWISETTA        1448   79 83   70/  5/  9 1023.5R
SOLOMONS ISLAND  1448   78 84   70/  7/  9   N/A
PINEY POINT      1448           50/  5/  7   N/A

$$





USA.gov is the U.S. government's official web portal to all federal, state and local government web resources and services.